DH7HU-3 Weather Reports


time (UTC)temp
C
wind
direction
speed
KPH
gust
KPH
rain 1hr
cm
rain 24hr
cm
rain mn
cm
humidity
%
barometer
mb
20260504222953 16 0.0 0.0 0.00 0.00 0.00 35 1003.6
20260504222652 16 0.0 0.0 0.00 0.00 0.00 35 1003.6
20260504221744 17 0.0 0.0 0.00 0.00 0.00 34 1003.7
20260504221441 17 0.0 0.0 0.00 0.00 0.00 34 1003.7
20260504221138 17 0.0 0.0 0.00 0.00 0.00 34 1003.7
20260504220835 17 0.0 0.0 0.00 0.00 0.00 34 1003.7
20260504220533 17 0.0 0.0 0.00 0.00 0.00 34 1003.6
20260504220230 17 0.0 0.0 0.00 0.00 0.00 34 1003.7
20260504215322 17 0.0 0.0 0.00 0.00 0.00 34 1003.7
20260504214717 17 0.0 0.0 0.00 0.00 0.00 33 1003.7
20260504214414 17 0.0 0.0 0.00 0.00 0.00 33 1003.7
20260504214111 17 0.0 0.0 0.00 0.00 0.00 33 1003.7
20260504213810 17 0.0 0.0 0.00 0.00 0.00 33 1003.8
20260504213204 17 0.0 0.0 0.00 0.00 0.00 34 1003.8
20260504212600 17 0.0 0.0 0.00 0.00 0.00 34 1003.8
20260504211955 17 0.0 0.0 0.00 0.00 0.00 33 1003.8
20260504151146 28 0.0 0.0 0.00 0.00 0.00 19 1003.3
20260504150540 27 0.0 0.0 0.00 0.00 0.00 19 1003.4
20260504150238 29 0.0 0.0 0.00 0.00 0.00 17 1003.5
20260504140752 32 0.0 0.0 0.00 0.00 0.00 16 1003.9
20260504140449 32 0.0 0.0 0.00 0.00 0.00 16 1003.9
20260504140146 31 0.0 0.0 0.00 0.00 0.00 17 1003.9
20260504130658 26 0.0 0.0 0.00 0.00 0.00 20 1003.9
20260504110513 20 0.0 0.0 0.00 0.00 0.00 28 1004.3
20260504100415 18 0.0 0.0 0.00 0.00 0.00 30 1004.5
20260504081141 18 0.0 0.0 0.00 0.00 0.00 32 1004.5
20260504080838 17 0.0 0.0 0.00 0.00 0.00 33 1004.5
20260504080535 17 0.0 0.0 0.00 0.00 0.00 34 1004.5
20260504080232 16 0.0 0.0 0.00 0.00 0.00 35 1004.6
20260504050556 16 0.0 0.0 0.00 0.00 0.00 31 1003.4
20260504045951 16 0.0 0.0 0.00 0.00 0.00 32 1003.4
20260504044743 16 0.0 0.0 0.00 0.00 0.00 31 1003.3
20260504044138 16 0.0 0.0 0.00 0.00 0.00 30 1003.4
20260504043835 16 0.0 0.0 0.00 0.00 0.00 30 1003.4
20260504043231 17 0.0 0.0 0.00 0.00 0.00 30 1003.2
20260504042319 17 0.0 0.0 0.00 0.00 0.00 29 1003.1
20260504042018 17 0.0 0.0 0.00 0.00 0.00 29 1003.0
20260504041716 18 0.0 0.0 0.00 0.00 0.00 28 1002.9
20260504040808 18 0.0 0.0 0.00 0.00 0.00 29 1002.9
20260504040505 18 0.0 0.0 0.00 0.00 0.00 29 1002.9
20260504040204 18 0.0 0.0 0.00 0.00 0.00 29 1002.8
20260504035600 18 0.0 0.0 0.00 0.00 0.00 29 1002.8
20260504035257 18 0.0 0.0 0.00 0.00 0.00 28 1002.7
20260504034955 18 0.0 0.0 0.00 0.00 0.00 28 1002.6
20260504034654 18 0.0 0.0 0.00 0.00 0.00 28 1002.6
20260504034349 18 0.0 0.0 0.00 0.00 0.00 28 1002.7
20260504033744 18 0.0 0.0 0.00 0.00 0.00 28 1002.7
20260504033441 18 0.0 0.0 0.00 0.00 0.00 28 1002.7
20260504032837 18 0.0 0.0 0.00 0.00 0.00 28 1002.8
20260504032534 18 0.0 0.0 0.00 0.00 0.00 28 1002.8
20260504032231 18 0.0 0.0 0.00 0.00 0.00 27 1002.9
20260504031628 18 0.0 0.0 0.00 0.00 0.00 27 1003.1
20260504030722 18 0.0 0.0 0.00 0.00 0.00 27 1003.2
20260504030420 18 0.0 0.0 0.00 0.00 0.00 27 1003.2
20260504030119 18 0.0 0.0 0.00 0.00 0.00 26 1003.2
20260504025515 18 0.0 0.0 0.00 0.00 0.00 27 1003.2
20260504025212 18 0.0 0.0 0.00 0.00 0.00 26 1003.1
20260504023357 18 0.0 0.0 0.00 0.00 0.00 26 1003.1
20260504022753 18 0.0 0.0 0.00 0.00 0.00 25 1003.2
20260504022450 18 0.0 0.0 0.00 0.00 0.00 25 1003.3
20260504021543 19 0.0 0.0 0.00 0.00 0.00 24 1003.2
20260504021241 19 0.0 0.0 0.00 0.00 0.00 24 1003.2
20260504020938 18 0.0 0.0 0.00 0.00 0.00 24 1003.1
20260504020335 18 0.0 0.0 0.00 0.00 0.00 24 1003.0
20260504020032 18 0.0 0.0 0.00 0.00 0.00 24 1003.0
20260504015731 19 0.0 0.0 0.00 0.00 0.00 23 1003.0
20260504015428 19 0.0 0.0 0.00 0.00 0.00 23 1003.1
20260504014822 19 0.0 0.0 0.00 0.00 0.00 23 1003.1
20260504014219 19 0.0 0.0 0.00 0.00 0.00 23 1003.1
20260504013917 19 0.0 0.0 0.00 0.00 0.00 23 1003.1
20260504013615 18 0.0 0.0 0.00 0.00 0.00 23 1003.0
20260504013312 19 0.0 0.0 0.00 0.00 0.00 23 1003.0
20260504013010 19 0.0 0.0 0.00 0.00 0.00 23 1002.9
20260504012709 20 0.0 0.0 0.00 0.00 0.00 23 1002.8
20260504012407 20 0.0 0.0 0.00 0.00 0.00 23 1002.7
20260504012103 20 0.0 0.0 0.00 0.00 0.00 23 1002.7
20260504011459 20 0.0 0.0 0.00 0.00 0.00 23 1002.7
20260504011156 20 0.0 0.0 0.00 0.00 0.00 23 1002.6
20260504010551 20 0.0 0.0 0.00 0.00 0.00 22 1002.6
20260504010249 20 0.0 0.0 0.00 0.00 0.00 22 1002.6
20260504005947 20 0.0 0.0 0.00 0.00 0.00 23 1002.5
20260504005715 20 0.0 0.0 0.00 0.00 0.00 23 1002.5
20260504005345 20 0.0 0.0 0.00 0.00 0.00 22 1002.5
20260504004742 20 0.0 0.0 0.00 0.00 0.00 22 1002.4
20260504004439 20 0.0 0.0 0.00 0.00 0.00 22 1002.4
20260504004137 20 0.0 0.0 0.00 0.00 0.00 22 1002.5
20260504003835 20 0.0 0.0 0.00 0.00 0.00 22 1002.5
20260504003534 20 0.0 0.0 0.00 0.00 0.00 22 1002.4
20260504003231 20 0.0 0.0 0.00 0.00 0.00 22 1002.4
20260504002627 20 0.0 0.0 0.00 0.00 0.00 22 1002.4
20260504002324 20 0.0 0.0 0.00 0.00 0.00 22 1002.5
20260504001718 20 0.0 0.0 0.00 0.00 0.00 22 1002.5
20260504001417 20 0.0 0.0 0.00 0.00 0.00 22 1002.5
20260504000812 20 0.0 0.0 0.00 0.00 0.00 22 1002.5
20260504000206 20 0.0 0.0 0.00 0.00 0.00 22 1002.5
20260503235904 20 0.0 0.0 0.00 0.00 0.00 22 1002.5
20260503235558 20 0.0 0.0 0.00 0.00 0.00 22 1002.5
20260503234954 19 0.0 0.0 0.00 0.00 0.00 22 1002.5
20260503234651 18 0.0 0.0 0.00 0.00 0.00 23 1002.5
20260503234047 18 0.0 0.0 0.00 0.00 0.00 23 1002.5
20260503233745 19 0.0 0.0 0.00 0.00 0.00 22 1002.5
20260503233443 18 0.0 0.0 0.00 0.00 0.00 22 1002.4
20260503233142 19 0.0 0.0 0.00 0.00 0.00 21 1002.3
20260503232539 18 0.0 0.0 0.00 0.00 0.00 22 1002.5
20260503231631 18 0.0 0.0 0.00 0.00 0.00 22 1002.3
20260503231028 18 0.0 0.0 0.00 0.00 0.00 22 1002.3
20260503230725 19 0.0 0.0 0.00 0.00 0.00 21 1002.3
20260503230422 19 0.0 0.0 0.00 0.00 0.00 21 1002.3
20260503230121 18 0.0 0.0 0.00 0.00 0.00 21 1002.3
20260503225214 18 0.0 0.0 0.00 0.00 0.00 22 1002.4
20260503223956 16 0.0 0.0 0.00 0.00 0.00 24 1002.4
20260503223654 16 0.0 0.0 0.00 0.00 0.00 24 1002.3
20260503223351 16 0.0 0.0 0.00 0.00 0.00 24 1002.2